Location: Knowlton
(51.2333°N, 1.2667°E)
Time: 11:41:24
(UTC+00:00)

ISS - Pass Details

Date: 04 October 2021
Orbit: 417 x 423 km, 51.6° (Epoch: 21 October)

Event Time Altitude Azimuth Distance (km) Brightness Sun altitude
Rises 19:06:45 0° 280° (W) 2,366 1.9 -16.6°
Reaches altitude 10° 19:09:34 10° 255° (WSW) 1,499 0.0 -17.0°
Maximum altitude 19:11:27 14° 221° (SW) 1,262 -1.0 -17.3°
Drops below altitude 10° 19:13:20 10° 186° (S) 1,495 -1.1 -17.6°
Enters shadow 19:13:39 - 182° (S) 1,571 -1.0 -17.6°
